Regional Weather Roundup
Issued by NWS Northern Indiana

Home | Current Version | Previous Version | Graphics & Text | Print | Product List | Glossary On
Versions: 1 2 3 4 5 6 7 8 9 10 11 12 13 14 15 16 17 18 19 20 21 22 23 24 25 26 27 28 29 30 31 32 33 34 35 36 37 38 39 40 41 42 43 44 45 46 47 48 49 50
000
ASUS43 KIWX 251400
RWRIWX

KIWX WEATHER ROUNDUP
NATIONAL WEATHER SERVICE NORTHERN INDIANA
900 AM EST SUN JAN 25 2015

NOTE: "FAIR" INDICATES FEW OR NO CLOUDS BELOW 12,000 FEET WITH NO
SIGNIFICANT WEATHER AND/OR OBSTRUCTIONS TO VISIBILITY.

* THESE STATIONS ARE NOT UNDER NWS QUALITY CONTROL. THEY ALSO MAY NOT
  REPORT WEATHER SUCH AS PRECIPITATION OR FOG.

INZ001>027-251500-
NORTHERN INDIANA

CITY           SKY/WX    TMP DP  RH WIND       PRES   REMARKS
GARY*          LGT RAIN  36  32  87 NE18      29.73R
VALPARAISO     MIX PCPN  34  32  93 NE8       29.71R FOG     WCI  27
SOUTH BEND     CLOUDY    35  32  88 E9        29.74R FOG     WCI  28
GOSHEN         CLOUDY    35  33  92 NE12      29.73R FOG     WCI  27
ANGOLA*        CLOUDY    34  30  86 E7        29.75R WCI  28
FORT WAYNE     CLOUDY    34  31  88 E5        29.74R WCI  30

$$
INZ028>050-251500-
CENTRAL INDIANA

CITY           SKY/WX    TMP DP  RH WIND       PRES   REMARKS
LAFAYETTE      CLOUDY    34  32  92 E6        29.67F WCI  29
KOKOMO*        CLOUDY    34  30  86 E5        29.71R WCI  30
MUNCIE*        MIX PCPN  34  31  88 SE3       29.70R FOG
INDIANAPOLIS   LGT RAIN  33  30  88 E7        29.67R WCI  27

$$
MIZ043>046-050>051-056>058-064>065-071>073-077>080-251500-
SOUTHWEST LOWER MICHIGAN

CITY           SKY/WX    TMP DP  RH WIND       PRES   REMARKS
BATTLE CREEK   LGT SNOW  28  21  75 NE14      29.81R WCI  17
BENTON HARBOR  CLOUDY    32  30  92 E13G20    29.77R FOG     WCI  22
COLDWATER*     LGT SNOW  31  29  94 MISG      29.77R
HILLSDALE*     LGT SNOW  31  30  96 E14       29.77R WCI  21
HOLLAND        CLOUDY    29  20  69 NE10      29.83R WCI  20
GRAND RAPIDS   CLOUDY    24  16  71 NE18      29.84R WCI  10
KALAMAZOO      LGT SNOW  28  23  81 NE12      29.80R WCI  18
STURGIS*       LGT SNOW  32  30  93 NE12      29.75R WCI  23
THREE RIVERS*  LGT SNOW  32  30  93 NE14      29.77R WCI  22

$$
OHZ001>008-015>018-024>025-251500-
NORTHWEST OHIO

CITY           SKY/WX    TMP DP  RH WIND       PRES   REMARKS
DEFIANCE       MIX PCPN  35  32  88 NE9       29.78R FOG     WCI  28
FINDLAY        CLOUDY    35  31  85 NE5       29.75R WCI  31
TOLEDO EXPRESS LGT SNOW  27  24  89 NE18      29.81R FOG     WCI  14
TOLEDO METCALF FLURRIES  27  21  78 NE17G26   29.83R WCI  14
LIMA           CLOUDY    35  31  85 CALM      29.73R FOG

$$
AND FOR LAKE MICHIGAN COASTAL AND OPEN LAKE BUOY OBSERVATIONS

STATION/POSITION TEMP    WIND        PRES    VSBY  WAVE
                 AIR SEA DIR/SP/G                  HT/PER
                 (F)     (DEG/KT/KT) (MB)    (MI)  (FT/S)
CALUMET HARBOR    34      20/  9/ 11   N/A
MICHIGAN CITY     33      40/ 11/ 12   N/A
SAINT JOSEPH      33      20/  5/ 13 1007.5S

$$
&&


USA.gov is the U.S. government's official web portal to all federal, state and local government web resources and services.